Home   Weather   Paris   Past weeks

Flag for France Past Weather in Paris, Île-de-France, France — Yesterday and Last 2 Weeks

Now
43 °F

Clear.


Feels Like: 41 °F
Forecast: 42 / 53 °F
Wind: 3 mph from Northeast

Location: Villacoublay

Current Time: Apr 24, 2017 at 3:39:17 am

Latest Report: Apr 24, 2017 at 3:00 am


Visibility: 10 mi

Pressure: 30.15 "Hg

Humidity: 61%

Dew Point: 30 °F

Location of ParisLocation

Past Weather in Paris — Graph

°F

Paris Temperature Yesterday

Maximum temperature yesterday: 57 °F (at 4:30 pm)
Minimum temperature yesterday: 41 °F (at 6:30 am)
Average temperature yesterday: 50 °F

High & Low Weather Summary for the Past Weeks

 TemperatureHumidityPressure
High75 °F (Apr 9, 3:00 pm)94% (Apr 15, 10:30 am)30.60 "Hg (Apr 15, 10:30 am)
Low34 °F (Apr 20, 5:30 am)21% (Apr 9, 4:00 pm)30.04 "Hg (Apr 12, 8:00 pm)
Average51 °F60%30.26 "Hg
* Reported Apr 9 2:00 am — Apr 24 2:00 am, Paris, Weather by CustomWeather, © 2017

Note: Actual official high and low records may vary slightly from our data, if they occured in-between our weather recording intervals... More about our weather records

Advertising

Paris Weather History for the Previous 24 Hours

Scroll right to see more
 ConditionsComfort  
Time TempWeatherWind HumidityBarometerVisibility
2:00 am
Mon, Apr 24
46 °FClear.5 mph53%30.18 "Hg10 mi
1:30 am46 °FClear.5 mph53%30.18 "Hg10 mi
1:00 am46 °FClear.6 mph53%30.18 "Hg10 mi
12:30 am48 °FClear.6 mph54%30.18 "Hg10 mi
12:00 am48 °FClear.6 mph54%30.21 "Hg10 mi
11:30 pm
Sun, Apr 23
48 °FClear.7 mph54%30.21 "Hg10 mi
11:00 pm50 °FClear.6 mph50%30.21 "Hg10 mi
10:30 pm50 °FClear.7 mph50%30.21 "Hg10 mi
10:00 pm52 °FClear.6 mph47%30.21 "Hg10 mi
9:30 pm52 °FPassing clouds.8 mph47%30.21 "HgN/A
9:00 pm52 °FClear.8 mph47%30.21 "Hg10 mi
8:30 pm54 °FPassing clouds.8 mph44%30.21 "HgN/A
8:00 pm54 °FPassing clouds.10 mph44%30.21 "HgN/A
7:30 pm55 °FPassing clouds.9 mph41%30.21 "HgN/A
7:00 pm55 °FPassing clouds.10 mph41%30.21 "HgN/A
6:30 pm57 °FPassing clouds.9 mph39%30.21 "HgN/A
6:00 pm55 °FPassing clouds.9 mph41%30.24 "HgN/A
5:30 pm55 °FPassing clouds.8 mph41%30.24 "HgN/A
5:00 pm55 °FPassing clouds.9 mph41%30.24 "HgN/A
4:30 pm57 °FPassing clouds.7 mph41%30.24 "HgN/A
4:00 pm55 °FPassing clouds.12 mph41%30.27 "HgN/A
3:30 pm55 °FPassing clouds.12 mph41%30.27 "HgN/A
3:00 pm55 °FPassing clouds.9 mph41%30.27 "HgN/A
2:30 pm54 °FPassing clouds.9 mph44%30.30 "HgN/A
2:00 pm54 °FPassing clouds.12 mph41%30.30 "HgN/A
1:30 pm54 °FPassing clouds.7 mph38%30.30 "HgN/A
1:00 pm52 °FPassing clouds.9 mph41%30.30 "HgN/A
12:30 pm52 °FPassing clouds.10 mph41%30.33 "HgN/A
12:00 pm50 °FPassing clouds.10 mph43%30.33 "HgN/A
11:30 am50 °FPassing clouds.8 mph43%30.33 "HgN/A
11:00 am50 °FPassing clouds.9 mph43%30.33 "HgN/A
10:30 am50 °FPartly sunny.10 mph47%30.33 "HgN/A
10:00 am48 °FScattered clouds.12 mph46%30.33 "HgN/A
9:30 am48 °FSunny.12 mph46%30.33 "Hg10 mi
9:00 am48 °FPassing clouds.6 mph54%30.33 "HgN/A
8:30 am46 °FSunny.5 mph62%30.33 "Hg10 mi
8:00 am45 °FSunny.2 mph66%30.33 "Hg10 mi
7:30 am43 °FSunny.3 mph71%30.30 "Hg10 mi
7:00 am41 °FSunny.6 mph70%30.30 "Hg10 mi
6:30 am41 °FClear.5 mph70%30.30 "Hg10 mi
6:00 am43 °FClear.6 mph66%30.30 "Hg10 mi
5:30 am43 °FClear.6 mph66%30.30 "Hg10 mi
4:30 am45 °FClear.8 mph61%30.30 "Hg10 mi
4:00 am45 °FClear.8 mph61%30.30 "Hg10 mi
3:30 am45 °FPassing clouds.8 mph61%30.30 "HgN/A
3:00 am46 °FClear.8 mph62%30.30 "Hg10 mi
Weather by CustomWeather, © 2017

See weather overviewHow to use our weather pages